Domov               UVHVVR             MKGP            O straneh              
ZDRAVSTVENO VARSTVO RASTLIN
  MREŽA AGROMET. POSTAJ
 ► PROGNOSTIČNA OBVESTILA
AGROMETEOROLOŠKI PODATKI -
ARSO
OBVLADOVANJE TVEGANJ ZARADI
NEUGODNIH VREMENSKIH RAZMER
  ► NARAVNE NESREČE
  ► SUŠA/MOČA
  ► NAMAKANJE
  ► ŽLED (gozdarstvo)
KARTOGRAFSKI PRIKAZI
SPLETNE POVEZAVE
PROJEKTI IN PUBLIKACIJE

AGROMETEOROLOŠKA MREŽA: VREMENSKE POSTAJE IN FENOLOŠKA OPAZOVANJA

Pregled podatkov za lokacijo Meranovo, meteorološka postaja 61680

Pregled senzorjev na lokaciji

ID Ime Zadnja
vrednost
Datum
zadnje
spremembe
Tip
senzorja
4200 Temperatura 2 m ( °C) 11,53 °C 24.10.2017 10:30 Generic -40 - +60 °C
4201 Relativna vlaga 2 m (% RH) 53,13 % RH 24.10.2017 10:30 Generic 0 - 100 %
4202 Omočenost lista (U) 0 U 24.10.2017 10:29 A730WET
4203 Padavine 0.2 mm (mm) 0 mm 24.10.2017 10:30 Generic 0.2 mm

Pregled podatkov zadnjih 24 ur

Zap.
št.
Datum in čas Meranovo
Omočenost
lista
Padavine
0.2
mm
Relativna
vlaga
2
m
Temperatura
2
m
0 24.10.2017 09:30 0 0 53,13 11,53
1 24.10.2017 09:00 0 0 53,86 10,91
2 24.10.2017 08:30 0 0 60,39 9,24
3 24.10.2017 08:00 0 0 60,08 9,26
4 24.10.2017 07:30 0 0 65,59 7,54
5 24.10.2017 07:00 0 0 67,06 7,13
6 24.10.2017 06:30 0 0 64,84 7,46
7 24.10.2017 06:00 0 0 63,69 7,69
8 24.10.2017 05:30 0 0 64,46 7,6
9 24.10.2017 05:00 0 0 64,21 7,68
10 24.10.2017 04:30 0 0 63,73 7,74
11 24.10.2017 04:00 0 0 64,47 7,57
12 24.10.2017 03:30 0 0 64,92 7,47
13 24.10.2017 03:00 0 0 65,04 7,44
14 24.10.2017 02:30 0 0 63,46 7,66
15 24.10.2017 02:00 0 0 62,17 7,84
16 24.10.2017 01:30 0 0 63,64 7,55
17 24.10.2017 01:00 0 0 62,46 7,77
18 24.10.2017 00:30 0 0 60,08 8,22
19 24.10.2017 00:00 0 0 60,03 8,27
20 23.10.2017 23:30 0 0 59,28 8,47
21 23.10.2017 23:00 0 0 58,95 8,58
22 23.10.2017 22:30 0 0 57,63 8,84
23 23.10.2017 22:00 0 0 56,34 9,12
24 23.10.2017 21:30 0 0 55,53 9,17
25 23.10.2017 21:00 0 0 55,34 9,17
26 23.10.2017 20:30 0 0 55,29 9,17
27 23.10.2017 20:00 0 0 54,63 9,18
28 23.10.2017 19:30 0 0 54,37 9,14
29 23.10.2017 19:00 0 0 54,78 9,09
30 23.10.2017 18:30 0 0 54,53 9,11
31 23.10.2017 18:00 0 0 54,24 9,07
32 23.10.2017 17:30 0 0 53,56 9,15
33 23.10.2017 17:00 0 0 52,45 9,33
34 23.10.2017 16:30 0 0 52,27 9,43
35 23.10.2017 16:00 0 0 54,18 9,45
36 23.10.2017 15:30 0 0 54,47 9,48
37 23.10.2017 15:00 0 0 55,5 9,47
38 23.10.2017 14:30 0 0 56,66 9,43
39 23.10.2017 14:00 0 0 58,03 9,42
40 23.10.2017 13:30 0 0 56,98 9,49
41 23.10.2017 13:00 0 0 58,77 9,31
42 23.10.2017 12:30 0 0 59,65 9,28
43 23.10.2017 12:00 0 0 61,64 9,02
44 23.10.2017 11:30 0 0 63,36 8,73
© 2011 Ministrstvo za kmetijstvo, gozdarstvo in prehrano. Vse pravice pridržane.